Regional Weather Roundup
Issued by NWS

Home | Current Version | Previous Version | Text Only | Print | Product List | Glossary On
Versions: 1 2 3 4 5 6 7 8 9 10 11 12 13 14 15 16 17 18 19 20 21 22 23 24 25 26 27 28 29 30 31 32 33 34 35 36 37 38 39 40 41 42 43 44 45 46 47 48 49 50
000
ASUS44 KOUN 230510
RWROK

WEATHER ROUNDUP FOR OKLAHOMA
NATIONAL WEATHER SERVICE NORMAN OK
1100 PM CST SUN JAN 22 2017

NOTE: "FAIR" INDICATES FEW OR NO CLOUDS BELOW 12,000 FEET WITH NO
      SIGNIFICANT WEATHER AND/OR OBSTRUCTIONS TO VISIBILITY.

OKZ001>007-009>012-014-015-017-230600-
NORTHWEST OKLAHOMA AND THE PANHANDLE

CITY           SKY/WX    TMP DP  RH WIND       PRES   REMARKS
GAGE           CLEAR     31  28  89 SW8       29.98R WCI  23
GUYMON         CLOUDY    30  24  78 S3        29.96S
ENID/WOODRING  CLEAR     39  32  75 N3        29.95S
$$

OKZ016-021>023-033>039-044-045-230600-
SOUTHWEST OKLAHOMA

CITY           SKY/WX    TMP DP  RH WIND       PRES   REMARKS
LAWTON/REGL    CLEAR     41  33  73 NW6       29.97S
LAWTON/FT SILL CLEAR     44  36  72 CALM      29.95S
FREDERICK      CLEAR     43  35  73 NW8       29.97R
CLINTON        CLEAR     39  31  72 NW8       29.98R WCI  33
HOBART         CLEAR     38  33  82 NW7       30.00R WCI  33
ALTUS AFB      CLEAR     41  31  68 NW12      29.99R
$$

OKZ018>020-024>031-230600-
CENTRAL OKLAHOMA

CITY           SKY/WX    TMP DP  RH WIND       PRES   REMARKS
OKLAHOMA CITY  CLEAR     39  30  70 N9        29.95R WCI  33
OKC/WILEY POST CLEAR     43  31  62 NW6       29.96R
OKC/TINKER AFB CLEAR     40  30  65 N9        29.94R WCI  35
STILLWATER     CLEAR     39  30  70 NW5       29.95R
GUTHRIE        CLEAR     41  31  67 N5        29.96R
$$

OKZ008-013-054>072-230600-
NORTHEAST OKLAHOMA

CITY           SKY/WX    TMP DP  RH WIND       PRES   REMARKS
TULSA          CLEAR     37  32  82 NW10      29.95R WCI  30
TULSA/JONES    CLEAR     41  32  70 NW5       29.95R
PONCA CITY     CLEAR     36  30  79 N5        29.96R WCI  32
BARTLESVILLE   CLEAR     36  30  79 CALM      29.95R
MUSKOGEE       PTCLDY    38  33  82 N13       29.93R WCI  30
$$

OKZ032-040>043-046>053-073>077-230600-
SOUTH CENTRAL/SOUTHEAST OKLAHOMA

CITY           SKY/WX    TMP DP  RH WIND       PRES   REMARKS
ARDMORE/DWNTWN PTCLDY    46  32  57 CALM      29.95R
MCALESTER      PTCLDY    48  31  51 N12       29.91R
$$





USA.gov is the U.S. government's official web portal to all federal, state and local government web resources and services.